Weather History for KPWA - July, 2013

Change the Weather History Date:

Thursday, July 25, 2013

  Actual Average (KOKC) Record (KOKC)
Temperature  
Mean Temperature 78 °F 84 °F  
Max Temperature 84 °F 95 °F 106 °F (1998)
Min Temperature 73 °F 73 °F 58 °F (1911)
Cooling Degree Days 14 19  
Month to date cooling degree days 448  
Year to date cooling degree days 1088  
Growing Degree Days 28 (Base 50)    
Moisture  
Dew Point 68 °F    
Average Humidity 72    
Maximum Humidity 89    
Minimum Humidity 55    
Precipitation  
Precipitation 0.17 in 0.09 in 1.96 in (1906)
Month to date precipitation 2.40  
Year to date precipitation 21.08  
Sea Level Pressure  
Sea Level Pressure 30.01 in    
Wind  
Wind Speed 6 mph (South)    
Max Wind Speed 16 mph    
Max Gust Speed -    
Visibility 8 miles    
Events Rain , Thunderstorm    
T = Trace of Precipitation, MM = Missing Value Source: NWS Daily Summary

Daily Weather History Graph

Daily Weather History Graph

Search for Another Location

Airport or City:

Trip Planner

Search our weather history database for the weather conditions in past years. The results will help you decide how hot, cold, wet, or windy it might be!

Date:

Astronomy

Jul. 25, 2013 Rise Set
Actual Time 6:33 AM CDT 8:39 PM CDT
Civil Twilight 6:05 AM CDT 9:08 PM CDT
Nautical Twilight 5:30 AM CDT 9:43 PM CDT
Astronomical Twilight 4:52 AM CDT 10:20 PM CDT
Moon 10:32 PM CDT (7/25) 9:55 AM CDT (7/25)
Length of Visible Light 15h 03m
Length of Day
14h 06m
Waning Gibbous, 88% of the Moon is Illuminated
Jul 25
Waning Gibbous
Jul 29
Last Quarter
Aug 6
New
Aug 14
First Quarter
Aug 20
Full

Hourly Weather History & Observations

Time (CDT) Temp. Heat Index Dew Point Humidity Pressure Visibility Wind Dir Wind Speed Gust Speed Precip Events Conditions
12:53 AM 77.0 °F - 66.9 °F 71% 29.99 in 10.0 mi SSE 5.8 mph - N/A   Clear
1:53 AM 73.9 °F - 68.0 °F 82% 29.99 in 10.0 mi Calm Calm - N/A   Clear
2:53 AM 75.0 °F - 68.0 °F 79% 29.99 in 10.0 mi ESE 4.6 mph - N/A   Clear
3:53 AM 75.0 °F - 66.9 °F 76% 30.00 in 10.0 mi East 3.5 mph - N/A   Clear
4:53 AM 73.9 °F - 66.9 °F 79% 30.01 in 8.0 mi Calm Calm - N/A   Clear
5:53 AM 73.0 °F - 66.9 °F 81% 30.01 in 8.0 mi Calm Calm - N/A   Clear
6:53 AM 73.0 °F - 68.0 °F 84% 30.03 in 6.0 mi SW 4.6 mph - N/A   Haze
7:53 AM 73.0 °F - 69.1 °F 87% 30.05 in 6.0 mi West 4.6 mph - N/A   Clear
8:53 AM 75.0 °F - 69.1 °F 82% 30.05 in 7.0 mi WSW 3.5 mph - N/A   Clear
9:53 AM 79.0 °F - 68.0 °F 69% 30.04 in 9.0 mi SSE 4.6 mph - 0.00 in   Clear
10:53 AM 81.0 °F 83.0 °F 66.0 °F 60% 30.05 in 10.0 mi South 9.2 mph - N/A   Clear
11:53 AM 82.0 °F 84.1 °F 66.0 °F 58% 30.05 in 9.0 mi SSE 10.4 mph - N/A   Clear
12:53 PM 84.0 °F 86.3 °F 66.0 °F 55% 30.04 in 10.0 mi South 11.5 mph - N/A   Clear
1:53 PM 84.0 °F 86.5 °F 66.9 °F 56% 30.06 in 10.0 mi SSW 8.1 mph - N/A   Partly Cloudy
2:53 PM 82.0 °F 85.5 °F 69.1 °F 65% 30.06 in 9.0 mi SW 8.1 mph - 0.00 in Rain Light Rain
3:53 PM 82.9 °F 85.8 °F 68.0 °F 60% 30.00 in 9.0 mi South 6.9 mph - 0.00 in   Clear
4:53 PM 82.9 °F 85.4 °F 66.9 °F 58% 29.96 in 9.0 mi SE 15.0 mph - N/A   Clear
5:53 PM 82.9 °F 85.8 °F 68.0 °F 60% 29.96 in 8.0 mi South 16.1 mph - 0.00 in   Scattered Clouds
6:53 PM 81.0 °F 84.1 °F 69.1 °F 67% 29.97 in 9.0 mi SW 4.6 mph - N/A   Clear
7:53 PM 80.1 °F 82.9 °F 69.1 °F 69% 29.98 in 8.0 mi South 9.2 mph - N/A   Partly Cloudy
8:53 PM 80.1 °F 82.9 °F 69.1 °F 69% 29.97 in 9.0 mi South 11.5 mph - 0.00 in   Partly Cloudy
9:53 PM 79.0 °F - 69.1 °F 72% 29.98 in 9.0 mi SSW 5.8 mph - N/A   Mostly Cloudy
10:53 PM 79.0 °F - 69.1 °F 72% 29.97 in 9.0 mi SSE 6.9 mph - N/A   Overcast
11:01 PM 78.8 °F - 69.8 °F 74% 30.02 in 9.0 mi South 5.8 mph - N/A Thunderstorm Overcast
11:23 PM 75.2 °F - 71.6 °F 89% 30.04 in 1.8 mi SSW 9.2 mph - 0.12 in Rain , Thunderstorm Heavy Thunderstorms and Rain
11:34 PM 75.2 °F - 69.8 °F 83% 30.01 in 3.0 mi SE 13.8 mph - 0.16 in Rain , Thunderstorm Light Thunderstorms and Rain
11:41 PM 75.2 °F - 68.0 °F 78% 30.00 in 6.0 mi SSE 11.5 mph - 0.17 in Rain Light Rain
11:53 PM 77.0 °F - 70.0 °F 79% 29.97 in 10.0 mi SSE 9.2 mph - 0.17 in Rain Light Rain